Gran Bretagna — IBFB — position and weather

sailwx.info

Track history (hours):
 
Tides and Currents Weather Stations Pressure Air Temp Water Temp Dewpoint Dewpoint Depression Visibility Wind Speed Wind Dir Waves Ship Positions

Gran Bretagna

Last reported at 2018-Jun-23 13:29 UTC. Time now 2018-Jun-23 13:54 UTC.
Position N 51°50' W 008°20'.

Length 184 m; draft 8.4 m.

Type: Cargo ship. MMSI: 247290000.

Date/timePositionNaut miles runAvg speedWind from/ knotsBaromVisibWave heightAir tempDewpointWater temp
2018-Jun-23 13:29N 51°50' W 008°20'0 0.1
2018-Jun-23 12:59N 51°50' W 008°20'0 0.0
2018-Jun-23 12:29N 51°50' W 008°20'0 0.0
2018-Jun-23 11:59N 51°50' W 008°20'0 0.0
2018-Jun-23 11:29N 51°50' W 008°20'0 0.0
2018-Jun-23 10:59N 51°50' W 008°20'0 0.0
2018-Jun-23 10:29N 51°50' W 008°20'0 0.0
2018-Jun-23 09:59N 51°50' W 008°20'0 0.0
2018-Jun-23 09:29N 51°50' W 008°20'0 0.0
2018-Jun-23 08:59N 51°50' W 008°20'0 0.0
2018-Jun-23 08:29N 51°50' W 008°20'0 0.0
2018-Jun-23 07:59N 51°50' W 008°20'0 0.0
2018-Jun-23 07:29N 51°50' W 008°20'0 0.0
2018-Jun-23 06:59N 51°50' W 008°20'0 0.0
2018-Jun-23 06:29N 51°50' W 008°20'0 0.0
2018-Jun-23 06:00N 51°50' W 008°20'2 3.5
2018-Jun-23 05:30N 51°51' W 008°17'510.6
2018-Jun-23 05:00N 51°46' W 008°15'5 9.3
2018-Jun-23 04:30N 51°41' W 008°13'4 7.9
2018-Jun-23 04:00N 51°37' W 008°12'2 3.8
2018-Jun-23 03:30N 51°37' W 008°09'2 4.5
2018-Jun-23 03:00N 51°39' W 008°08'510.0
2018-Jun-23 02:31N 51°39' W 007°60'5 9.9
2018-Jun-23 02:00N 51°38' W 007°52'5 9.7
2018-Jun-23 01:31N 51°37' W 007°44'4 9.0
2018-Jun-23 01:00N 51°35' W 007°38'510.0
2018-Jun-23 00:31N 51°31' W 007°34'714.4
2018-Jun-23 00:00N 51°26' W 007°25'815.9
2018-Jun-22 23:30N 51°23' W 007°13'815.9
2018-Jun-22 23:00N 51°19' W 007°02'915.3
2018-Jun-22 22:26N 51°17' W 006°48'715.8
2018-Jun-22 22:00N 51°18' W 006°37'816.0
2018-Jun-22 21:30N 51°19' W 006°24'815.9
2018-Jun-22 20:58N 51°20' W 006°11'715.8
2018-Jun-22 20:30N 51°21' W 005°60'815.9
2018-Jun-22 20:00N 51°22' W 005°47'815.9
2018-Jun-22 19:30N 51°23' W 005°34'816.1
2018-Jun-22 19:00N 51°23' W 005°21'816.4
2018-Jun-22 18:30N 51°23' W 005°08'816.8
2018-Jun-22 18:00N 51°23' W 004°55'816.9
2018-Jun-22 17:30N 51°22' W 004°41'917.1
2018-Jun-22 17:00N 51°22' W 004°28'1817.0
2018-Jun-22 15:58N 51°22' W 003°59'2313.6
2018-Jun-22 14:16N 51°21' W 003°22'415.2
2018-Jun-22 14:00N 51°21' W 003°16'713.5
2018-Jun-22 13:30N 51°23' W 003°05'714.6
2018-Jun-22 13:00N 51°27' W 002°57'714.6
2018-Jun-22 12:30N 51°30' W 002°46'1 2.7
2018-Jun-22 12:00N 51°30' W 002°44'0 0.8
2018-Jun-22 11:29N 51°30' W 002°43'0 0.0
2018-Jun-22 10:59N 51°30' W 002°43'0 0.0
2018-Jun-22 10:29N 51°30' W 002°43'0 0.0
2018-Jun-22 09:59N 51°30' W 002°43'0 0.0
2018-Jun-22 09:29N 51°30' W 002°43'0 0.0
2018-Jun-22 08:59N 51°30' W 002°43'0 0.0
2018-Jun-22 08:29N 51°30' W 002°43'0 0.0
2018-Jun-22 07:59N 51°30' W 002°43'0 0.0
2018-Jun-22 07:29N 51°30' W 002°43'0 0.0
2018-Jun-22 06:59N 51°30' W 002°43'0 0.0
2018-Jun-22 06:29N 51°30' W 002°43'0 0.0
2018-Jun-22 05:59N 51°30' W 002°43'0 0.0
2018-Jun-22 05:29N 51°30' W 002°43'0 0.0
2018-Jun-22 04:59N 51°30' W 002°43'0 0.0
2018-Jun-22 04:29N 51°30' W 002°43'0 0.0
2018-Jun-22 03:59N 51°30' W 002°43'0 0.0
2018-Jun-22 03:29N 51°30' W 002°43'0 0.0
2018-Jun-22 02:59N 51°30' W 002°43'0 0.0
2018-Jun-22 02:29N 51°30' W 002°43'0 0.0
2018-Jun-22 01:59N 51°30' W 002°43'0 0.0
2018-Jun-22 01:29N 51°30' W 002°43'0 0.8
2018-Jun-22 01:00N 51°30' W 002°43'0 0.4
2018-Jun-22 00:30N 51°30' W 002°44'0 0.8
2018-Jun-22 00:00N 51°30' W 002°44'815.9
2018-Jun-21 23:31N 51°27' W 002°56'917.2
2018-Jun-21 23:00N 51°22' W 003°07'611.2
2018-Jun-21 22:30N 51°20' W 003°16'4 8.5
2018-Jun-21 22:01N 51°21' W 003°22'2915.2
2018-Jun-21 20:07N 51°18' W 004°08'317.4
2018-Jun-21 19:57N 51°18' W 004°13'916.4
2018-Jun-21 19:25N 51°13' W 004°24'716.9
2018-Jun-21 19:00N 51°08' W 004°32'816.7
2018-Jun-21 18:30N 51°02' W 004°42'816.7
2018-Jun-21 18:00N 50°57' W 004°52'816.7
2018-Jun-21 17:30N 50°51' W 005°01'816.6
2018-Jun-21 17:00N 50°45' W 005°11'816.4
2018-Jun-21 16:30N 50°40' W 005°20'816.4
2018-Jun-21 16:00N 50°34' W 005°31'816.4
2018-Jun-21 15:30N 50°29' W 005°40'816.3
2018-Jun-21 15:01N 50°23' W 005°49'6816.5
2018-Jun-21 10:52N 49°16' W 006°04'917.9
2018-Jun-21 10:21N 49°07' W 006°08'60317.3
2018-Jun-19 23:30N 39°25' W 009°52'817.4
2018-Jun-19 23:00N 39°17' W 009°52'917.5
2018-Jun-19 22:30N 39°08' W 009°52'917.5
2018-Jun-19 22:01N 38°59' W 009°52'917.4
2018-Jun-19 21:30N 38°51' W 009°52'917.6
2018-Jun-19 21:00N 38°42' W 009°52'816.6
2018-Jun-19 20:30N 38°34' W 009°47'917.8
2018-Jun-19 20:00N 38°30' W 009°37'917.3
2018-Jun-19 19:30N 38°27' W 009°27'714.3
2018-Jun-19 19:00N 38°23' W 009°20'816.5
2018-Jun-19 18:30N 38°21' W 009°09'917.4
2018-Jun-19 18:00N 38°26' W 009°00'611.8
2018-Jun-19 17:30N 38°30' W 008°55'2 4.3
2018-Jun-19 17:00N 38°31' W 008°52'0 0.0
2018-Jun-19 16:30N 38°31' W 008°52'0 0.0
2018-Jun-19 16:00N 38°31' W 008°52'0 0.0
2018-Jun-19 15:30N 38°31' W 008°52'0 0.0
2018-Jun-19 15:00N 38°31' W 008°52'0 0.0
2018-Jun-19 14:30N 38°31' W 008°52'0 0.0
2018-Jun-19 14:00N 38°31' W 008°52'0 0.0
2018-Jun-19 13:30N 38°31' W 008°52'0 0.0
2018-Jun-19 13:00N 38°31' W 008°52'0 0.0
2018-Jun-19 12:30N 38°31' W 008°52'0 0.0
2018-Jun-19 12:00N 38°31' W 008°52'0 0.0
2018-Jun-19 11:30N 38°31' W 008°52'0 0.0
2018-Jun-19 11:00N 38°31' W 008°52'0 0.0
2018-Jun-19 10:30N 38°31' W 008°52'0 0.0
2018-Jun-19 10:00N 38°31' W 008°52'0 0.0
2018-Jun-19 09:30N 38°31' W 008°52'0 0.0
2018-Jun-19 09:00N 38°31' W 008°52'0 0.0
2018-Jun-19 08:30N 38°31' W 008°52'0 0.0
2018-Jun-19 07:57N 38°31' W 008°52'0 0.0
2018-Jun-19 07:30N 38°31' W 008°52'0 0.0
2018-Jun-19 07:00N 38°31' W 008°52'0 0.4
2018-Jun-19 06:30N 38°30' W 008°52'2 3.7
2018-Jun-19 06:00N 38°31' W 008°54'510.5
2018-Jun-19 05:30N 38°27' W 008°59'2 4.7
2018-Jun-19 05:00N 38°25' W 008°59'1 1.1
2018-Jun-19 04:30N 38°25' W 009°00'4 8.8
2018-Jun-19 04:00N 38°20' W 009°00'714.5
2018-Jun-19 03:31N 38°13' W 009°03'815.3
2018-Jun-19 03:01N 38°06' W 009°04'815.9
2018-Jun-19 02:31N 37°58' W 009°06'816.2
2018-Jun-19 02:01N 37°50' W 009°08'815.7
2018-Jun-19 01:30N 37°42' W 009°09'815.7
2018-Jun-19 01:01N 37°34' W 009°11'815.8
2018-Jun-19 00:31N 37°27' W 009°13'816.0
2018-Jun-19 00:01N 37°19' W 009°15'816.1
2018-Jun-18 23:31N 37°11' W 009°17'815.5
2018-Jun-18 23:00N 37°03' W 009°19'1214.7
2018-Jun-18 22:11N 36°52' W 009°16'316.1
2018-Jun-18 22:00N 36°50' W 009°13'815.3
2018-Jun-18 21:29N 36°45' W 009°05'715.9
2018-Jun-18 21:00N 36°42' W 008°56'4016.1
2018-Jun-18 18:32N 36°29' W 008°09'015.5
2018-Jun-18 18:30N 36°29' W 008°08'815.7
2018-Jun-18 17:59N 36°27' W 007°59'2316.0
2018-Jun-18 16:34N 36°20' W 007°32'415.6
2018-Jun-18 16:19N 36°19' W 007°27'716.1
2018-Jun-18 15:53N 36°17' W 007°19'815.6
2018-Jun-18 15:24N 36°15' W 007°10'716.0
2018-Jun-18 14:59N 36°12' W 007°02'7016.0
2018-Jun-18 10:37N 35°58' W 005°38'216.4
2018-Jun-18 10:30N 35°59' W 005°36'815.9
2018-Jun-18 10:01N 36°00' W 005°26'815.4
2018-Jun-18 09:31N 36°02' W 005°17'19215.7
2018-Jun-17 21:14N 36°37' W 001°22'415.1
2018-Jun-17 21:00N 36°38' W 001°18'1115.5
2018-Jun-17 20:17N 36°41' W 001°05'516.0
2018-Jun-17 20:00N 36°42' W 000°59'815.8
2018-Jun-17 19:30N 36°43' W 000°50'815.6
2018-Jun-17 19:00N 36°45' W 000°40'815.7
2018-Jun-17 18:30N 36°47' W 000°30'815.8
2018-Jun-17 18:00N 36°49' W 000°21'815.9
2018-Jun-17 17:31N 36°51' W 000°12'816.0
2018-Jun-17 17:01N 36°53' W 000°02'816.1
2018-Jun-17 16:30N 36°55' E 000°08'816.0
2018-Jun-17 16:00N 36°57' E 000°18'816.0
2018-Jun-17 15:29N 36°59' E 000°28'816.0
2018-Jun-17 15:00N 37°00' E 000°37'815.9
2018-Jun-17 14:30N 37°02' E 000°47'816.4
2018-Jun-17 14:00N 37°04' E 000°57'916.8
2018-Jun-17 13:30N 37°06' E 001°07'816.8
2018-Jun-17 13:00N 37°08' E 001°18'916.7
2018-Jun-17 12:29N 37°10' E 001°28'816.5
2018-Jun-17 12:00N 37°12' E 001°38'816.6
2018-Jun-17 11:30N 37°15' E 001°48'816.5
2018-Jun-17 11:00N 37°17' E 001°58'916.4
2018-Jun-17 10:29N 37°19' E 002°08'816.5
2018-Jun-17 10:01N 37°21' E 002°18'816.5
2018-Jun-17 09:30N 37°23' E 002°28'816.3
2018-Jun-17 09:01N 37°25' E 002°38'815.6
2018-Jun-17 08:29N 37°27' E 002°48'815.7
2018-Jun-17 08:00N 37°29' E 002°57'815.8
2018-Jun-17 07:30N 37°31' E 003°07'915.7
2018-Jun-17 06:57N 37°33' E 003°17'716.0
2018-Jun-17 06:30N 37°34' E 003°26'816.4
2018-Jun-17 06:00N 37°36' E 003°36'816.7
2018-Jun-17 05:30N 37°38' E 003°46'816.5
2018-Jun-17 05:00N 37°40' E 003°57'4416.5
2018-Jun-17 02:20N 37°51' E 004°51'716.7
2018-Jun-17 01:56N 37°52' E 004°59'716.7
2018-Jun-17 01:30N 37°54' E 005°08'816.6
2018-Jun-17 01:00N 37°56' E 005°18'816.5
2018-Jun-17 00:30N 37°59' E 005°28'1116.7
2018-Jun-16 23:49N 38°01' E 005°42'40216.4
2018-Jun-15 23:17N 40°20' E 013°48'617.2
2018-Jun-15 22:58N 40°22' E 013°55'817.2
2018-Jun-15 22:31N 40°25' E 014°04'917.1
2018-Jun-15 22:00N 40°28' E 014°15'817.0
2018-Jun-15 21:31N 40°31' E 014°25'917.2
2018-Jun-15 21:01N 40°35' E 014°36'6 0.4
2018-Jun-15 04:24N 40°37' E 014°43'411.2
2018-Jun-15 04:00N 40°33' E 014°43'1017.9
2018-Jun-15 03:28N 40°23' E 014°43'9918.3
2018-Jun-14 22:03N 38°51' E 015°34'218.5
2018-Jun-14 21:57N 38°50' E 015°35'818.6
2018-Jun-14 21:30N 38°43' E 015°40'918.6
2018-Jun-14 21:01N 38°35' E 015°46'917.5
2018-Jun-14 20:30N 38°27' E 015°52'2 0.1
2018-Jun-13 14:08N 38°28' E 015°55'0 0.4
2018-Jun-13 13:55N 38°28' E 015°55'  
Track history (hours):
 
Tides and Currents Weather Stations Pressure Air Temp Water Temp Dewpoint Dewpoint Depression Visibility Wind Speed Wind Dir Waves Ship Positions

Gran Bretagna

Last reported at 2018-Jun-23 13:29 UTC. Time now 2018-Jun-23 13:54 UTC.
Position N 51°50' W 008°20'.

Length 184 m; draft 8.4 m.

Type: Cargo ship. MMSI: 247290000.

Date/timePositionNaut miles runAvg speedWind from/ knotsBaromVisibWave heightAir tempDewpointWater temp
2018-Jun-23 13:29N 51°50' W 008°20'0 0.1
2018-Jun-23 12:59N 51°50' W 008°20'0 0.0
2018-Jun-23 12:29N 51°50' W 008°20'0 0.0
2018-Jun-23 11:59N 51°50' W 008°20'0 0.0
2018-Jun-23 11:29N 51°50' W 008°20'0 0.0
2018-Jun-23 10:59N 51°50' W 008°20'0 0.0
2018-Jun-23 10:29N 51°50' W 008°20'0 0.0
2018-Jun-23 09:59N 51°50' W 008°20'0 0.0
2018-Jun-23 09:29N 51°50' W 008°20'0 0.0
2018-Jun-23 08:59N 51°50' W 008°20'0 0.0
2018-Jun-23 08:29N 51°50' W 008°20'0 0.0
2018-Jun-23 07:59N 51°50' W 008°20'0 0.0
2018-Jun-23 07:29N 51°50' W 008°20'0 0.0
2018-Jun-23 06:59N 51°50' W 008°20'0 0.0
2018-Jun-23 06:29N 51°50' W 008°20'0 0.0
2018-Jun-23 06:00N 51°50' W 008°20'2 3.5
2018-Jun-23 05:30N 51°51' W 008°17'510.6
2018-Jun-23 05:00N 51°46' W 008°15'5 9.3
2018-Jun-23 04:30N 51°41' W 008°13'4 7.9
2018-Jun-23 04:00N 51°37' W 008°12'2 3.8
2018-Jun-23 03:30N 51°37' W 008°09'2 4.5
2018-Jun-23 03:00N 51°39' W 008°08'510.0
2018-Jun-23 02:31N 51°39' W 007°60'5 9.9
2018-Jun-23 02:00N 51°38' W 007°52'5 9.7
2018-Jun-23 01:31N 51°37' W 007°44'4 9.0
2018-Jun-23 01:00N 51°35' W 007°38'510.0
2018-Jun-23 00:31N 51°31' W 007°34'714.4
2018-Jun-23 00:00N 51°26' W 007°25'815.9
2018-Jun-22 23:30N 51°23' W 007°13'815.9
2018-Jun-22 23:00N 51°19' W 007°02'915.3
2018-Jun-22 22:26N 51°17' W 006°48'715.8
2018-Jun-22 22:00N 51°18' W 006°37'816.0
2018-Jun-22 21:30N 51°19' W 006°24'815.9
2018-Jun-22 20:58N 51°20' W 006°11'715.8
2018-Jun-22 20:30N 51°21' W 005°60'815.9
2018-Jun-22 20:00N 51°22' W 005°47'815.9
2018-Jun-22 19:30N 51°23' W 005°34'816.1
2018-Jun-22 19:00N 51°23' W 005°21'816.4
2018-Jun-22 18:30N 51°23' W 005°08'816.8
2018-Jun-22 18:00N 51°23' W 004°55'816.9
2018-Jun-22 17:30N 51°22' W 004°41'917.1
2018-Jun-22 17:00N 51°22' W 004°28'1817.0
2018-Jun-22 15:58N 51°22' W 003°59'2313.6
2018-Jun-22 14:16N 51°21' W 003°22'415.2
2018-Jun-22 14:00N 51°21' W 003°16'713.5
2018-Jun-22 13:30N 51°23' W 003°05'714.6
2018-Jun-22 13:00N 51°27' W 002°57'714.6
2018-Jun-22 12:30N 51°30' W 002°46'1 2.7
2018-Jun-22 12:00N 51°30' W 002°44'0 0.8
2018-Jun-22 11:29N 51°30' W 002°43'0 0.0
2018-Jun-22 10:59N 51°30' W 002°43'0 0.0
2018-Jun-22 10:29N 51°30' W 002°43'0 0.0
2018-Jun-22 09:59N 51°30' W 002°43'0 0.0
2018-Jun-22 09:29N 51°30' W 002°43'0 0.0
2018-Jun-22 08:59N 51°30' W 002°43'0 0.0
2018-Jun-22 08:29N 51°30' W 002°43'0 0.0
2018-Jun-22 07:59N 51°30' W 002°43'0 0.0
2018-Jun-22 07:29N 51°30' W 002°43'0 0.0
2018-Jun-22 06:59N 51°30' W 002°43'0 0.0
2018-Jun-22 06:29N 51°30' W 002°43'0 0.0
2018-Jun-22 05:59N 51°30' W 002°43'0 0.0
2018-Jun-22 05:29N 51°30' W 002°43'0 0.0
2018-Jun-22 04:59N 51°30' W 002°43'0 0.0
2018-Jun-22 04:29N 51°30' W 002°43'0 0.0
2018-Jun-22 03:59N 51°30' W 002°43'0 0.0
2018-Jun-22 03:29N 51°30' W 002°43'0 0.0
2018-Jun-22 02:59N 51°30' W 002°43'0 0.0
2018-Jun-22 02:29N 51°30' W 002°43'0 0.0
2018-Jun-22 01:59N 51°30' W 002°43'0 0.0
2018-Jun-22 01:29N 51°30' W 002°43'0 0.8
2018-Jun-22 01:00N 51°30' W 002°43'0 0.4
2018-Jun-22 00:30N 51°30' W 002°44'0 0.8
2018-Jun-22 00:00N 51°30' W 002°44'815.9
2018-Jun-21 23:31N 51°27' W 002°56'917.2
2018-Jun-21 23:00N 51°22' W 003°07'611.2
2018-Jun-21 22:30N 51°20' W 003°16'4 8.5
2018-Jun-21 22:01N 51°21' W 003°22'2915.2
2018-Jun-21 20:07N 51°18' W 004°08'317.4
2018-Jun-21 19:57N 51°18' W 004°13'916.4
2018-Jun-21 19:25N 51°13' W 004°24'716.9
2018-Jun-21 19:00N 51°08' W 004°32'816.7
2018-Jun-21 18:30N 51°02' W 004°42'816.7
2018-Jun-21 18:00N 50°57' W 004°52'816.7
2018-Jun-21 17:30N 50°51' W 005°01'816.6
2018-Jun-21 17:00N 50°45' W 005°11'816.4
2018-Jun-21 16:30N 50°40' W 005°20'816.4
2018-Jun-21 16:00N 50°34' W 005°31'816.4
2018-Jun-21 15:30N 50°29' W 005°40'816.3
2018-Jun-21 15:01N 50°23' W 005°49'6816.5
2018-Jun-21 10:52N 49°16' W 006°04'917.9
2018-Jun-21 10:21N 49°07' W 006°08'60317.3
2018-Jun-19 23:30N 39°25' W 009°52'817.4
2018-Jun-19 23:00N 39°17' W 009°52'917.5
2018-Jun-19 22:30N 39°08' W 009°52'917.5
2018-Jun-19 22:01N 38°59' W 009°52'917.4
2018-Jun-19 21:30N 38°51' W 009°52'917.6
2018-Jun-19 21:00N 38°42' W 009°52'816.6
2018-Jun-19 20:30N 38°34' W 009°47'917.8
2018-Jun-19 20:00N 38°30' W 009°37'917.3
2018-Jun-19 19:30N 38°27' W 009°27'714.3
2018-Jun-19 19:00N 38°23' W 009°20'816.5
2018-Jun-19 18:30N 38°21' W 009°09'917.4
2018-Jun-19 18:00N 38°26' W 009°00'611.8
2018-Jun-19 17:30N 38°30' W 008°55'2 4.3
2018-Jun-19 17:00N 38°31' W 008°52'0 0.0
2018-Jun-19 16:30N 38°31' W 008°52'0 0.0
2018-Jun-19 16:00N 38°31' W 008°52'0 0.0
2018-Jun-19 15:30N 38°31' W 008°52'0 0.0
2018-Jun-19 15:00N 38°31' W 008°52'0 0.0
2018-Jun-19 14:30N 38°31' W 008°52'0 0.0
2018-Jun-19 14:00N 38°31' W 008°52'0 0.0
2018-Jun-19 13:30N 38°31' W 008°52'0 0.0
2018-Jun-19 13:00N 38°31' W 008°52'0 0.0
2018-Jun-19 12:30N 38°31' W 008°52'0 0.0
2018-Jun-19 12:00N 38°31' W 008°52'0 0.0
2018-Jun-19 11:30N 38°31' W 008°52'0 0.0
2018-Jun-19 11:00N 38°31' W 008°52'0 0.0
2018-Jun-19 10:30N 38°31' W 008°52'0 0.0
2018-Jun-19 10:00N 38°31' W 008°52'0 0.0
2018-Jun-19 09:30N 38°31' W 008°52'0 0.0
2018-Jun-19 09:00N 38°31' W 008°52'0 0.0
2018-Jun-19 08:30N 38°31' W 008°52'0 0.0
2018-Jun-19 07:57N 38°31' W 008°52'0 0.0
2018-Jun-19 07:30N 38°31' W 008°52'0 0.0
2018-Jun-19 07:00N 38°31' W 008°52'0 0.4
2018-Jun-19 06:30N 38°30' W 008°52'2 3.7
2018-Jun-19 06:00N 38°31' W 008°54'510.5
2018-Jun-19 05:30N 38°27' W 008°59'2 4.7
2018-Jun-19 05:00N 38°25' W 008°59'1 1.1
2018-Jun-19 04:30N 38°25' W 009°00'4 8.8
2018-Jun-19 04:00N 38°20' W 009°00'714.5
2018-Jun-19 03:31N 38°13' W 009°03'815.3
2018-Jun-19 03:01N 38°06' W 009°04'815.9
2018-Jun-19 02:31N 37°58' W 009°06'816.2
2018-Jun-19 02:01N 37°50' W 009°08'815.7
2018-Jun-19 01:30N 37°42' W 009°09'815.7
2018-Jun-19 01:01N 37°34' W 009°11'815.8
2018-Jun-19 00:31N 37°27' W 009°13'816.0
2018-Jun-19 00:01N 37°19' W 009°15'816.1
2018-Jun-18 23:31N 37°11' W 009°17'815.5
2018-Jun-18 23:00N 37°03' W 009°19'1214.7
2018-Jun-18 22:11N 36°52' W 009°16'316.1
2018-Jun-18 22:00N 36°50' W 009°13'815.3
2018-Jun-18 21:29N 36°45' W 009°05'715.9
2018-Jun-18 21:00N 36°42' W 008°56'4016.1
2018-Jun-18 18:32N 36°29' W 008°09'015.5
2018-Jun-18 18:30N 36°29' W 008°08'815.7
2018-Jun-18 17:59N 36°27' W 007°59'2316.0
2018-Jun-18 16:34N 36°20' W 007°32'415.6
2018-Jun-18 16:19N 36°19' W 007°27'716.1
2018-Jun-18 15:53N 36°17' W 007°19'815.6
2018-Jun-18 15:24N 36°15' W 007°10'716.0
2018-Jun-18 14:59N 36°12' W 007°02'7016.0
2018-Jun-18 10:37N 35°58' W 005°38'216.4
2018-Jun-18 10:30N 35°59' W 005°36'815.9
2018-Jun-18 10:01N 36°00' W 005°26'815.4
2018-Jun-18 09:31N 36°02' W 005°17'19215.7
2018-Jun-17 21:14N 36°37' W 001°22'415.1
2018-Jun-17 21:00N 36°38' W 001°18'1115.5
2018-Jun-17 20:17N 36°41' W 001°05'516.0
2018-Jun-17 20:00N 36°42' W 000°59'815.8
2018-Jun-17 19:30N 36°43' W 000°50'815.6
2018-Jun-17 19:00N 36°45' W 000°40'815.7
2018-Jun-17 18:30N 36°47' W 000°30'815.8
2018-Jun-17 18:00N 36°49' W 000°21'815.9
2018-Jun-17 17:31N 36°51' W 000°12'816.0
2018-Jun-17 17:01N 36°53' W 000°02'816.1
2018-Jun-17 16:30N 36°55' E 000°08'816.0
2018-Jun-17 16:00N 36°57' E 000°18'816.0
2018-Jun-17 15:29N 36°59' E 000°28'816.0
2018-Jun-17 15:00N 37°00' E 000°37'815.9
2018-Jun-17 14:30N 37°02' E 000°47'816.4
2018-Jun-17 14:00N 37°04' E 000°57'916.8
2018-Jun-17 13:30N 37°06' E 001°07'816.8
2018-Jun-17 13:00N 37°08' E 001°18'916.7
2018-Jun-17 12:29N 37°10' E 001°28'816.5
2018-Jun-17 12:00N 37°12' E 001°38'816.6
2018-Jun-17 11:30N 37°15' E 001°48'816.5
2018-Jun-17 11:00N 37°17' E 001°58'916.4
2018-Jun-17 10:29N 37°19' E 002°08'816.5
2018-Jun-17 10:01N 37°21' E 002°18'816.5
2018-Jun-17 09:30N 37°23' E 002°28'816.3
2018-Jun-17 09:01N 37°25' E 002°38'815.6
2018-Jun-17 08:29N 37°27' E 002°48'815.7
2018-Jun-17 08:00N 37°29' E 002°57'815.8
2018-Jun-17 07:30N 37°31' E 003°07'915.7
2018-Jun-17 06:57N 37°33' E 003°17'716.0
2018-Jun-17 06:30N 37°34' E 003°26'816.4
2018-Jun-17 06:00N 37°36' E 003°36'816.7
2018-Jun-17 05:30N 37°38' E 003°46'816.5
2018-Jun-17 05:00N 37°40' E 003°57'4416.5
2018-Jun-17 02:20N 37°51' E 004°51'716.7
2018-Jun-17 01:56N 37°52' E 004°59'716.7
2018-Jun-17 01:30N 37°54' E 005°08'816.6
2018-Jun-17 01:00N 37°56' E 005°18'816.5
2018-Jun-17 00:30N 37°59' E 005°28'1116.7
2018-Jun-16 23:49N 38°01' E 005°42'40216.4
2018-Jun-15 23:17N 40°20' E 013°48'617.2
2018-Jun-15 22:58N 40°22' E 013°55'817.2
2018-Jun-15 22:31N 40°25' E 014°04'917.1
2018-Jun-15 22:00N 40°28' E 014°15'817.0
2018-Jun-15 21:31N 40°31' E 014°25'917.2
2018-Jun-15 21:01N 40°35' E 014°36'6 0.4
2018-Jun-15 04:24N 40°37' E 014°43'411.2
2018-Jun-15 04:00N 40°33' E 014°43'1017.9
2018-Jun-15 03:28N 40°23' E 014°43'9918.3
2018-Jun-14 22:03N 38°51' E 015°34'218.5
2018-Jun-14 21:57N 38°50' E 015°35'818.6
2018-Jun-14 21:30N 38°43' E 015°40'918.6
2018-Jun-14 21:01N 38°35' E 015°46'917.5
2018-Jun-14 20:30N 38°27' E 015°52'2 0.1
2018-Jun-13 14:08N 38°28' E 015°55'0 0.4
2018-Jun-13 13:55N 38°28' E 015°55'  

Dump ship's entire track history